Date String (YYYY-MM-DD hh:mm:ss) UTC,Instrument flags,absolute air pressure of the measurement (hPa),sample flow rate (lpm),inlet stack bypass flow (lpm),air temperature of the measurement (°C),ambient temperature measured by the external sensor (°C),aerosol sample conditioner tube jacket temperature (°C),OPC LED temperature (°C),internal box temperature (°C),relative humidity of the measurement (%),span deviation,mass concentration of particles derived from Lorenz-Mie calculation of OPC scattering (μg/m³),mass concentration of particles derived from Lorenz-Mie calculation of OPC scattering (μg/m³),mass concentration of particles derived from Lorenz-Mie calculation of OPC scattering (μg/m³)
DateTimeUTC,F1_M11,P_M11,Q1_M11,Q2_M11,T1_M11,T2_M11,T3_M11,T4_M11,T5_M11,U1_M11,ZSPAN_M11,X0_M11,X2_M11,X1_M11
2023-10-19 05:00:00,SystemResetWarning,0834.1,4.98,000.00,029.0,027.8,000.0,037.3,030.7,14.0,0000.0,0011.90,0003.88,0002.55
2023-10-19 05:01:00,SystemResetWarning,0834.1,5.00,000.00,029.0,027.8,000.0,037.4,030.7,14.0,0000.0,0012.82,0003.98,0002.57
2023-10-19 05:02:00,SystemResetWarning,0834.1,5.01,000.00,029.0,027.8,000.0,037.4,030.7,14.0,0000.0,0013.61,0004.06,0002.54
2023-10-19 05:03:00,SystemResetWarning,0834.1,5.01,000.00,029.0,027.8,000.0,037.4,030.7,14.0,0000.0,0015.22,0004.12,0002.53
2023-10-19 05:04:00,SystemResetWarning,0834.1,4.99,000.00,029.1,027.8,000.0,037.4,030.7,14.0,0000.0,0016.61,0004.21,0002.52
2023-10-19 05:05:00,SystemResetWarning,0834.1,4.99,000.00,029.1,027.8,000.0,037.4,030.8,14.0,0000.0,0018.36,0004.31,0002.51
2023-10-19 05:06:00,SystemResetWarning,0834.1,4.99,000.00,029.1,027.7,000.0,037.4,030.8,14.0,0000.0,0018.90,0004.35,0002.51
2023-10-19 05:07:00,SystemResetWarning,0834.1,5.00,000.00,029.1,026.0,000.0,037.4,030.6,14.0,0000.0,0019.51,0004.40,0002.50
2023-10-19 05:08:00,SystemResetWarning,0834.0,5.01,000.00,029.0,024.6,000.0,037.3,030.4,14.1,0000.0,0020.93,0004.38,0002.48
2023-10-19 05:09:00,SystemResetWarning,0834.0,5.01,000.00,028.8,024.4,000.0,037.3,030.2,14.2,0000.0,0022.15,0004.34,0002.45
2023-10-19 05:10:00,SystemResetWarning,0834.0,5.00,000.00,028.7,024.7,000.0,037.2,030.0,14.3,0000.0,0022.58,0004.29,0002.43
2023-10-19 05:11:00,SystemResetWarning,0834.0,5.00,000.00,028.6,025.1,000.0,037.2,030.0,14.3,0000.0,0022.04,0004.27,0002.40
2023-10-19 05:12:00,SystemResetWarning,0834.0,5.01,000.00,028.6,025.4,000.0,037.2,030.0,14.4,0000.0,0021.30,0004.23,0002.35
2023-10-19 05:13:00,SystemResetWarning,0834.0,5.00,000.00,028.5,025.8,000.0,037.2,030.0,14.4,0000.0,0020.22,0004.14,0002.34
2023-10-19 05:14:00,SystemResetWarning,0834.0,4.99,000.00,028.5,026.1,000.0,037.2,030.1,14.4,0000.0,0018.81,0004.06,0002.31
2023-10-19 05:15:00,SystemResetWarning,0834.0,5.00,000.00,028.5,026.3,000.0,037.2,030.1,14.4,0000.0,0018.45,0003.98,0002.29
2023-10-19 05:16:00,SystemResetWarning,0834.0,5.00,000.00,028.5,026.5,000.0,037.1,030.1,14.4,0000.0,0016.99,0003.91,0002.27
2023-10-19 05:17:00,SystemResetWarning,0834.0,5.01,000.00,028.5,026.6,000.0,037.1,030.2,14.4,0000.0,0016.32,0003.89,0002.27
2023-10-19 05:18:00,SystemResetWarning,0834.0,5.00,000.00,028.5,026.8,000.0,037.1,030.2,14.4,0000.0,0016.71,0003.83,0002.23
2023-10-19 05:19:00,SystemResetWarning,0834.0,4.99,000.00,028.5,026.9,000.0,037.1,030.2,14.4,0000.0,0015.60,0003.84,0002.22
2023-10-19 05:20:00,SystemResetWarning,0834.1,4.99,000.00,028.5,026.9,000.0,037.1,030.2,14.4,0000.0,0014.25,0003.87,0002.20
2023-10-19 05:21:00,SystemResetWarning,0834.0,5.00,000.00,028.6,027.0,000.0,037.1,030.2,14.3,0000.0,0014.04,0003.87,0002.17
2023-10-19 05:22:00,SystemResetWarning,0834.0,5.00,000.00,028.6,027.1,000.0,037.1,030.2,14.4,0000.0,0013.58,0003.88,0002.17
2023-10-19 05:23:00,SystemResetWarning,0834.1,5.00,000.00,028.6,027.1,000.0,037.1,030.3,14.4,0000.0,0014.30,0003.84,0002.18
2023-10-19 05:24:00,SystemResetWarning,0834.1,5.00,000.00,028.6,027.2,000.0,037.1,030.3,14.4,0000.0,0015.57,0003.83,0002.18
2023-10-19 05:25:00,SystemResetWarning,0834.1,5.00,000.00,028.6,027.2,000.0,037.1,030.3,14.4,0000.0,0015.84,0003.85,0002.17
2023-10-19 05:26:00,SystemResetWarning,0834.1,5.00,000.00,028.6,027.2,000.0,037.1,030.3,14.4,0000.0,0015.56,0003.83,0002.15
2023-10-19 05:27:00,SystemResetWarning,0834.1,5.00,000.00,028.7,027.3,000.0,037.1,030.3,14.4,0000.0,0015.39,0003.83,0002.14
2023-10-19 05:28:00,SystemResetWarning,0834.1,5.00,000.00,028.7,027.3,000.0,037.1,030.3,14.4,0000.0,0015.20,0003.78,0002.11
2023-10-19 05:29:00,SystemResetWarning,0834.1,5.00,000.00,028.7,027.3,000.0,037.1,030.3,14.4,0000.0,0013.93,0003.71,0002.08
2023-10-19 05:30:00,SystemResetWarning,0834.0,4.99,000.00,028.7,027.3,000.0,037.1,030.4,14.4,0000.0,0014.61,0003.67,0002.07
2023-10-19 05:31:00,SystemResetWarning,0834.0,4.99,000.00,028.7,027.3,000.0,037.1,030.4,14.4,0000.0,0015.07,0003.62,0002.06
2023-10-19 05:32:00,SystemResetWarning,0834.0,5.00,000.00,028.7,027.4,000.0,037.1,030.4,14.4,0000.0,0014.90,0003.59,0002.05
2023-10-19 05:33:00,SystemResetWarning,0834.0,5.00,000.00,028.7,027.4,000.0,037.1,030.4,14.3,0000.0,0015.79,0003.53,0002.03
2023-10-19 05:34:00,SystemResetWarning,0834.1,5.00,000.00,028.8,027.4,000.0,037.1,030.4,14.3,0000.0,0016.25,0003.49,0002.00
2023-10-19 05:35:00,SystemResetWarning,0834.0,5.01,000.00,028.8,027.4,000.0,037.1,030.4,14.3,0000.0,0015.16,0003.49,0001.97
2023-10-19 05:36:00,SystemResetWarning,0834.0,5.00,000.00,028.8,027.4,000.0,037.2,030.4,14.3,0000.0,0014.80,0003.45,0001.98
2023-10-19 05:37:00,SystemResetWarning,0834.0,5.00,000.00,028.8,027.5,000.0,037.2,030.4,14.3,0000.0,0014.10,0003.37,0001.97
2023-10-19 05:38:00,SystemResetWarning,0834.0,5.01,000.00,028.8,027.5,000.0,037.2,030.5,14.3,0000.0,0013.60,0003.33,0001.96
2023-10-19 05:39:00,SystemResetWarning,0834.0,4.98,000.00,028.8,027.5,000.0,037.2,030.5,14.3,0000.0,0014.75,0003.32,0001.98
2023-10-19 05:40:00,SystemResetWarning,0834.0,5.00,000.00,028.8,027.5,000.0,037.2,030.5,14.3,0000.0,0014.76,0003.32,0001.98
2023-10-19 05:41:00,SystemResetWarning,0834.0,5.00,000.00,028.8,027.5,000.0,037.2,030.5,14.3,0000.0,0013.80,0003.33,0001.97
2023-10-19 05:42:00,SystemResetWarning,0833.9,5.00,000.00,028.8,027.5,000.0,037.2,030.5,14.3,0000.0,0013.19,0003.31,0001.97
2023-10-19 05:43:00,SystemResetWarning,0834.0,5.00,000.00,028.9,027.5,000.0,037.3,030.5,14.3,0000.0,0012.98,0003.29,0001.98
2023-10-19 05:44:00,SystemResetWarning,0834.0,5.00,000.00,028.9,027.6,000.0,037.3,030.5,14.3,0000.0,0012.65,0003.32,0001.99
2023-10-19 05:45:00,SystemResetWarning,0834.0,5.00,000.00,028.9,027.6,000.0,037.3,030.5,14.2,0000.0,0011.90,0003.40,0001.99
2023-10-19 05:46:00,SystemResetWarning,0834.0,5.00,000.00,028.9,027.6,000.0,037.3,030.5,14.2,0000.0,0011.38,0003.44,0002.01
2023-10-19 05:47:00,SystemResetWarning,0834.0,5.00,000.00,028.9,027.6,000.0,037.3,030.5,14.2,0000.0,0011.11,0003.44,0002.00
2023-10-19 05:48:00,SystemResetWarning,0834.0,5.00,000.00,028.9,027.6,000.0,037.3,030.5,14.3,0000.0,0011.56,0003.46,0002.01
2023-10-19 05:49:00,SystemResetWarning,0834.0,5.00,000.00,028.9,027.6,000.0,037.3,030.6,14.3,0000.0,0011.62,0003.50,0002.02
2023-10-19 05:50:00,SystemResetWarning,0833.9,5.01,000.00,028.9,027.6,000.0,037.3,030.6,14.3,0000.0,0010.62,0003.51,0002.01
2023-10-19 05:51:00,SystemResetWarning,0834.0,4.98,000.00,028.9,027.6,000.0,037.3,030.6,14.3,0000.0,0010.59,0003.53,0002.01
2023-10-19 05:52:00,SystemResetWarning,0834.0,5.00,000.00,028.9,027.6,000.0,037.3,030.6,14.4,0000.0,0010.35,0003.52,0002.04
2023-10-19 05:53:00,SystemResetWarning,0834.0,5.00,000.00,029.0,027.6,000.0,037.4,030.6,14.4,0000.0,0010.18,0003.58,0002.04
2023-10-19 05:54:00,SystemResetWarning,0834.0,5.01,000.00,029.0,027.6,000.0,037.4,030.6,14.4,0000.0,0010.14,0003.55,0002.03
2023-10-19 05:55:00,SystemResetWarning,0834.0,5.01,000.00,029.0,027.6,000.0,037.4,030.6,14.4,0000.0,0010.54,0003.53,0002.03
2023-10-19 05:56:00,SystemResetWarning,0834.0,5.00,000.00,029.0,027.6,000.0,037.4,030.6,14.4,0000.0,0010.11,0003.45,0002.03
2023-10-19 05:57:00,SystemResetWarning,0834.0,5.00,000.00,029.0,027.6,000.0,037.4,030.6,14.4,0000.0,0009.91,0003.35,0002.02
2023-10-19 05:58:00,SystemResetWarning,0834.1,5.00,000.00,029.0,027.6,000.0,037.4,030.6,14.3,0000.0,0010.68,0003.34,0002.01
2023-10-19 05:59:00,SystemResetWarning,0834.0,5.00,000.00,029.0,027.6,000.0,037.4,030.6,14.3,0000.0,0011.58,0003.38,0002.00
